EUTELSAT 65 WEST A (41382 NORAD) Tracking and Keplerian Element Data

This shows tracking and keplerian element data for the satellite.

Feedback or suggestion? Click here.




ElementValue
Catalog41382
NameEUTELSAT 65 WEST A
Epoch Orbit1015
Epoch Day347.95169505
Epoch Year2018
RAAN26.5308
Inclination0.0503
Eccentricity0.0001784
Argument of Perigee230.4509
Mean Anonmoly103.0111
Mean Motion1.00274303
Decay Rate-2.67E-06
L11 41382U 16014A 18347.95169505 -.00000267 00000-0 00000+0 0 9998
L22 41382 0.0503 26.5308 0001784 230.4509 103.0111 1.00274303 10159

Live tracking and technical data element details for EUTELSAT 65 WEST A (NORAD 41382). EUTELSAT 65 WEST A can be tracked NOW for your location showing map with azimuth and elevation plus other details from your city location.

Track the satellite on the map from your city or location and see movement details for azimuth, elevation, latitude, longitude, range, height, and movement on the map or in text.







IsCatalogInMostPopularTable: catalog: 41382, numindb: 91
Update: records affected: 1



GetName: 41382 EUTELSAT 65 WEST A

Hit Count: updated at: Sun, 16 Dec 2018 04:03:57 GMT